Home   Weather   Hampton   Past weeks

Flag for USA Past Weather in Hampton, Virginia, USA — Yesterday and Last 2 Weeks

Now
60 °F

Partly sunny.


Feels Like: 60 °F
Forecast: 54 / 69 °F
Wind: 20 mph from Southwest

Location: Langley Air Force Base

Current Time: Mar 25, 2017 at 9:29:37 am

Latest Report: Mar 25, 2017 at 8:58 am


Visibility: 10 mi

Pressure: 30.30 "Hg

Humidity: 72%

Dew Point: 51 °F

Location of HamptonLocation

Past Weather in Hampton — Graph

°F

Hampton Temperature Yesterday

Maximum temperature yesterday: 69 °F (at 4:58 pm)
Minimum temperature yesterday: 33 °F (at 5:58 am)
Average temperature yesterday: 52 °F

High & Low Weather Summary for the Past Weeks

 TemperatureHumidityPressure
High69 °F (Mar 24, 4:58 pm)100% (Mar 13, 9:41 pm)30.66 "Hg (Mar 13, 9:41 pm)
Low25 °F (Mar 15, 6:58 am)23% (Mar 17, 4:58 pm)29.38 "Hg (Mar 14, 5:08 am)
Average43 °F62%30.13 "Hg
* Reported Mar 10 6:58 am — Mar 25 7:58 am, Hampton, Weather by CustomWeather, © 2017

Note: Actual official high and low records may vary slightly from our data, if they occured in-between our weather recording intervals... More about our weather records

Advertising

Hampton Weather History for the Previous 24 Hours

Scroll right to see more
 ConditionsComfort  
Time TempWeatherWind HumidityBarometerVisibility
7:58 am
Sat, Mar 25
59 °FSunny.16 mph75%30.30 "Hg10 mi
6:58 am58 °FClear.16 mph75%30.28 "Hg10 mi
5:58 am59 °FClear.17 mph71%30.25 "Hg10 mi
4:58 am60 °FClear.18 mph69%30.25 "Hg10 mi
3:58 am60 °FClear.17 mph70%30.26 "Hg10 mi
2:58 am59 °FClear.16 mph69%30.29 "Hg10 mi
1:58 am60 °FClear.16 mph68%30.29 "Hg10 mi
12:58 am60 °FClear.17 mph68%30.30 "Hg10 mi
11:58 pm
Fri, Mar 24
61 °FClear.15 mph62%30.29 "Hg10 mi
10:58 pm63 °FClear.12 mph57%30.29 "Hg10 mi
9:58 pm63 °FClear.15 mph55%30.29 "Hg10 mi
8:58 pm64 °FClear.13 mph53%30.29 "Hg10 mi
7:58 pm65 °FClear.12 mph53%30.29 "Hg10 mi
6:58 pm66 °FSunny.16 mph50%30.29 "Hg10 mi
5:58 pm68 °FSunny.18 mph46%30.30 "Hg10 mi
4:58 pm69 °FOvercast.23 mph43%30.32 "Hg10 mi
3:58 pm66 °FOvercast.22 mph42%30.34 "Hg10 mi
2:58 pm64 °FOvercast.16 mph37%30.37 "Hg10 mi
1:58 pm62 °FOvercast.16 mph39%30.40 "Hg10 mi
12:58 pm58 °FPartly sunny.12 mph47%30.47 "Hg10 mi
11:58 am56 °FPartly sunny.9 mph48%30.52 "Hg10 mi
10:58 am51 °FPartly sunny.12 mph43%30.53 "Hg10 mi
9:58 am47 °FPartly sunny.9 mph48%30.53 "Hg10 mi
Weather by CustomWeather, © 2017

See weather overviewHow to use our weather pages